#timestamp,LO_Frequency,Hit,StdDev 
1544223615.9,286047001.7,N
1544223635.7,286046998.4,N
1544223655.5,286046993.5,N
1544223675.4,286046994.6,N
1544223695.2,286046990.5,N
1544223715.0,286046990.1,N
1544223715.9,286046990.1,N
1544223735.8,286046988.5,N
1544223755.6,286046988.8,N
1544223775.5,286046994.7,N
1544223795.3,286046991.7,N
1544223815.1,286046994.2,N
1544223835.9,286046992.0,N
1544223855.7,286046992.9,N
1544223875.5,286046996.1,N
1544223895.4,286046996.2,N
1544223915.2,286046995.4,N
1544223935.1,286046996.4,N
1544223936.0,286046996.4,N
1544223955.8,286046998.7,N
1544223975.6,286046996.2,N
1544223995.5,286046996.3,N
1544224015.3,286046997.2,N
1544224035.1,286046994.9,N
1544224055.9,286046999.1,N
1544224075.7,286046995.6,N
1544224095.5,286046995.0,N
1544224115.4,286046999.2,N
1544224135.2,286046999.0,N
1544224155.1,286046999.7,N
1544224156.0,286046999.7,N
1544224175.8,286046998.7,N
1544224195.6,286047000.6,N
1544224215.5,286047000.6,N
1544224235.3,286047000.1,N
1544224255.1,286046999.2,N
1544224275.9,286046996.0,N
1544224295.7,286046993.7,N
1544224315.6,286046997.0,N
1544224335.4,286046999.0,N
1544224355.2,286047002.7,N
1544224375.1,286047000.4,N
1544224376.0,286047000.4,N
1544224395.8,286047001.5,N
1544224415.6,286047000.1,N
1544224435.5,286047001.4,N
1544224455.3,286047001.3,N
1544224475.2,286047003.2,N
1544224495.9,286047005.3,N
1544224515.7,286047005.6,N
1544224535.6,286047004.9,N
1544224555.4,286047003.5,N
1544224575.2,286047005.8,N
1544224595.1,286047004.3,N
1544224596.0,286047004.3,N
1544224615.8,286047001.7,N
1544224635.7,286047005.5,N
1544224655.5,286047003.5,N
1544224675.3,286047003.3,N
1544224695.2,286047004.3,N
1544224715.0,286047005.7,N
1544224715.9,286047005.7,N
1544224735.8,286047006.9,N
1544224755.6,286047006.3,N
1544224775.4,286047008.7,N
1544224795.3,286047007.1,N
1544224815.1,286047003.4,N
1544224816.0,286047003.4,N
1544224835.8,286047002.3,N
1544224855.7,286047004.3,N
1544224875.5,286047005.3,N
1544224895.3,286047006.2,N
1544224915.2,286047006.4,Y
1544224935.0,286047003.1,P
1544224935.9,286047003.1,P
1544224955.8,286047002.9,P
1544224975.6,286047003.4,Y
1544224995.4,286046998.3,P
1544225015.3,286046997.3,N
1544225035.1,286046999.1,N
1544225055.8,286046999.1,N
1544225075.7,286046997.2,N
1544225095.5,286046996.9,N
1544225115.4,286047001.2,N
1544225135.2,286046999.7,N
1544225155.0,286046998.8,N
1544225155.9,286046998.8,N
1544225175.8,286046995.3,N
1544225195.6,286046995.6,N
1544225215.4,286046995.8,N
1544225235.3,286046998.9,N
1544225255.1,286047011.9,Y
1544225275.9,286046998.1,P
1544225295.7,286047011.9,P
1544225315.5,286047000.2,N
1544225335.4,286046999.0,N
1544225355.2,286046998.9,N
1544225375.0,286046997.0,N
1544225375.9,286046997.0,N
1544225395.8,286046995.6,N
1544225415.6,286046993.9,N
1544225435.5,286046995.8,N
1544225455.3,286046996.2,N
1544225475.1,286046996.8,N
1544225495.9,286047001.1,N
1544225515.7,286047002.8,N
1544225535.5,286047004.0,N
1544225555.4,286047002.2,N
1544225575.2,286046999.8,N
1544225595.1,286047000.5,N
1544225596.0,286047000.5,N
1544225615.8,286047000.7,N
1544225635.6,286046997.5,N
1544225655.5,286046995.8,N
1544225675.3,286046990.3,N
1544225695.1,286046988.4,N
1544225715.9,286046987.2,N
1544225735.7,286046990.5,N
1544225755.6,286046992.5,N
1544225775.4,286046993.6,N
1544225795.2,286046996.2,N
1544225815.1,286046996.9,N
1544225816.0,286046996.9,N
1544225835.8,286046998.3,N
1544225855.6,286046996.7,N
1544225875.5,286047000.5,N
1544225895.3,286046999.9,N
1544225915.2,286047001.6,N
1544225935.9,286047002.3,N
1544225955.7,286047001.6,N
1544225975.6,286047000.4,N
1544225995.4,286046998.2,N
1544226015.2,286046998.8,N
1544226035.1,286046996.6,N
1544226036.0,286046996.6,N
1544226055.8,286047000.7,N
1544226075.7,286046998.6,N
1544226095.5,286047000.4,N
1544226115.3,286047000.8,N
1544226135.2,286047001.0,N
1544226155.9,286046998.9,N
1544226175.7,286046995.8,N
1544226195.6,286046994.8,N
1544226215.4,286046996.2,N
1544226235.2,286046993.4,N
1544226255.1,286046995.5,N
1544226256.0,286046995.5,N
1544226275.8,286046996.7,N
1544226295.7,286046994.9,N
1544226315.5,286046995.9,N
1544226335.3,286046993.5,N
1544226355.2,286046992.3,Y
1544226375.0,286046994.2,P
1544226375.9,286046994.2,P
1544226395.8,286046995.2,N
1544226415.6,286046997.9,N
1544226435.4,286046999.3,N
1544226455.3,286046996.8,N
1544226475.1,286046994.3,Y
1544226495.8,286046999.2,P
1544226515.7,286046998.2,N
1544226535.5,286047001.1,N
1544226555.4,286047000.9,N
1544226575.2,286047000.5,N
1544226595.0,286047001.1,N
1544226595.9,286047001.1,N
1544226615.8,286046999.7,N
1544226635.6,286046999.9,N
1544226655.4,286046998.1,N
1544226675.3,286046999.0,N
1544226695.1,286046996.5,N
1544226715.9,286046997.5,N
1544226735.7,286046996.5,N
1544226755.5,286046997.3,N
1544226775.4,286046996.6,N
1544226795.2,286047000.2,N
1544226815.0,286047002.3,N
1544226815.9,286047002.3,N
1544226835.8,286046999.9,N
1544226855.6,286047000.2,N
1544226875.5,286047001.3,N
1544226895.3,286047001.3,N
1544226915.1,286046998.2,N
1544226935.9,286047001.0,N
1544226955.7,286047000.6,N
1544226975.5,286047003.9,N
1544226995.4,286047002.5,N
1544227015.2,286046999.7,N
1544227035.1,286047003.6,N
1544227036.0,286047003.6,N
1544227055.8,286047004.1,N
1544227075.6,286047004.0,N
1544227095.5,286047003.4,N
1544227115.3,286047007.6,Y
1544227135.1,286047006.5,P
1544227155.9,286047008.9,N
1544227175.7,286047009.0,N
1544227195.6,286047006.6,N
